Погода в Песчанке

Россия / Саратовская область     51°18′24″N   43°40′41″E
темп.,
°C
ветер,
м/с
пор.,
м/с
влажн.,
%
обл.,
%
осадки,
мм/ч
давл.,
гПа
погр.,
м
25 февраля, чт
чт2501:00−22юз238698 0.0 103932
04:00−20ю368799 0.0 1037157
07:00−17ююз5996100 0.2 1034318
10:00−14ююз61195100 0.9 1032445
13:00−11ююз81294100 1.1 1028528
16:00−9юз81494100 2.9 1024562
19:00−7юз81695100 2.2 1020544
22:00−3зюз61295100 3.4 1017389
26 февраля, пт
пт2601:00+1з61299100 0.1 1015379
04:00+1зсз41199100 0.2 1015345
07:00+1зсз3899100 0.0 1015226
10:00+1з35100100 0.0 1015142
13:00+1зюз49100100 0.5 1014239
16:00+2з612100100 0.8 1013339
19:00+2зюз51499100 0.4 1011488
22:00+2зюз612100100 0.8 1010356
27 февраля, сб
сб2701:00+2з71499100 0.3 1007455
04:00+1з61296100 0.3 1007427
07:00+1з61295100 0.0 1006463
10:00+1зюз61296100 0.1 1006498
13:00+1зюз611100100 0.1 1005528
16:000з61198100 0.1 1005542
19:000з61296100 0.1 1004623
22:000з61298100 0.3 1004634
28 февраля, вс
вс2801:00−4сз51093100 0.6 1005605
04:00−9сз61191100 0.6 1008481
07:00−11ссз6109293 0.0 1010562
10:00−12ссз699197 0.1 1013514
13:00−11ссз6990100 0.0 1014530
16:00−10ссз6989100 0.1 1016583
19:00−12ссз41092100 0.0 1017406
22:00−13ссз4109473 0.0 1020319
1 марта, пн
пн101:00−14ссз37950 0.0 1022176
04:00−15ссз37950 0.0 1023148
07:00−16ссз36950 0.0 1025141
10:00−15ссз48930 0.0 1026269
13:00−12сз359026 0.0 1027350
16:00−10сз359044 0.0 1027395
19:00−12зсз349519 0.0 102666
22:00−12з369632 0.0 102690